Hourly Data Report for November 16, 2016

All times are specified in Local Standard Time (LST). Add 1 hour to adjust for Daylight Saving Time where and when it is observed.

KITCHENER/WATERLOO
ONTARIO

43°27'39.000" N
80°22'43.000" W
321.60 m
6144239
71368
YKF

Download Data

Hourly Data (November 2016)
Hourly Data Report for November 16, 2016
Temp Definition
°C
Dew Point Temp Definition
°C
Rel Hum Definition
%
Wind Dir Definition
10's deg

Wind Spd Definition
km/h
Visibility Definition
km
Stn Press Definition
kPa
Hmdx Definition


Wind Chill Definition


Weather Definition


TIME
00:00 Legend Double Dagger 2.2 1.5 95   0 4.8 97.13     Fog
01:00 Legend Double Dagger 1.6 1.1 96   0 2.0 97.07     Fog
02:00 Legend Double Dagger 3.2 2.8 97 7 5 4.8 97.05     Fog
03:00 Legend Double Dagger 4.5 3.6 94 8 9 4.8 97.03     Fog
04:00 Legend Double Dagger 4.6 3.9 95   0 4.8 97.02     Fog
05:00 Legend Double Dagger 4.9 4.0 94   0 4.8 97.03     Fog
06:00 Legend Double Dagger 4.6 3.9 95   0 4.8 97.03     Fog
07:00 Legend Double Dagger 4.9 4.0 94 26 5 4.8 97.08     Rain,Fog
08:00 Legend Double Dagger 6.0 5.1 94 31 8 4.8 97.10     Rain,Fog
09:00 Legend Double Dagger 7.3 6.6 95 30 13 2.4 97.14     Rain,Fog
10:00 Legend Double Dagger 8.5 7.4 93 30 13 4.0 97.14     Fog
11:00 Legend Double Dagger 8.6 7.7 94 29 17 2.8 97.17     Rain,Fog
12:00 Legend Double Dagger 9.3 7.4 88 30 18 16.1 97.16     LegendNANA
13:00 Legend Double Dagger 10.8 6.2 73 30 22 16.1 97.16     LegendNANA
14:00 Legend Double Dagger 10.5 4.6 67 32 28 16.1 97.23     LegendNANA
15:00 Legend Double Dagger 10.1 3.8 65 31 24 16.1 97.29     LegendNANA
16:00 Legend Double Dagger 9.7 4.7 71 30 17 16.1 97.40     LegendNANA
17:00 Legend Double Dagger 8.8 3.5 69 30 15 16.1 97.46     LegendNANA
18:00 Legend Double Dagger 7.9 3.4 73 30 15 16.1 97.52     LegendNANA
19:00 Legend Double Dagger 5.1 2.3 82 28 13 16.1 97.59     LegendNANA
20:00 Legend Double Dagger 4.0 1.8 85 30 8 16.1 97.61     LegendNANA
21:00 Legend Double Dagger 2.7 1.7 93 28 11 16.1 97.68     LegendNANA
22:00 Legend Double Dagger 3.1 2.4 95 31 9 16.1 97.71     LegendNANA
23:00 Legend Double Dagger 2.5 2.1 97 31 13 16.1 97.74     LegendNANA

Notes on Data Quality.

Legend

  • E = Estimated
  • M = Missing
  • NA = Not Available
  • ‡ = Partner data that is not subject to review by the National Climate Archives
Date modified: